TimeEDT,TemperatureF,Dew PointF,Humidity,Sea Level PressureIn,VisibilityMPH,Wind Direction,Wind SpeedMPH,Gust SpeedMPH,PrecipitationIn,Events,Conditions,WindDirDegrees,DateUTC
12:51 AM,44.1,39.9,85,30.15,10.0,South,3.5,-,N/A,,Clear,170,2013-09-24 04:51:00
1:51 AM,44.1,39.9,85,30.15,10.0,South,3.5,-,N/A,,Clear,190,2013-09-24 05:51:00
2:51 AM,44.1,39.9,85,30.14,10.0,South,3.5,-,N/A,,Clear,180,2013-09-24 06:51:00
3:42 AM,44.6,39.2,81,30.13,10.0,SSW,5.8,-,N/A,,Mostly Cloudy,200,2013-09-24 07:42:00
3:51 AM,44.1,39.9,85,30.14,10.0,SSW,3.5,-,N/A,,Mostly Cloudy,200,2013-09-24 07:51:00
4:31 AM,44.6,39.2,81,30.13,10.0,SSW,4.6,-,N/A,,Scattered Clouds,200,2013-09-24 08:31:00
4:51 AM,44.1,39.9,85,30.14,10.0,South,4.6,-,N/A,,Clear,190,2013-09-24 08:51:00
5:51 AM,44.1,39.9,85,30.15,10.0,South,6.9,-,N/A,,Mostly Cloudy,190,2013-09-24 09:51:00
6:51 AM,44.1,39.0,82,30.16,10.0,South,5.8,-,N/A,,Mostly Cloudy,190,2013-09-24 10:51:00
7:07 AM,44.6,39.2,81,30.15,10.0,South,3.5,-,N/A,,Scattered Clouds,190,2013-09-24 11:07:00
7:25 AM,44.6,39.2,81,30.15,10.0,South,5.8,-,N/A,,Mostly Cloudy,190,2013-09-24 11:25:00
7:51 AM,45.0,39.9,82,30.16,10.0,Calm,Calm,-,N/A,,Mostly Cloudy,0,2013-09-24 11:51:00
8:03 AM,44.6,39.2,81,30.15,10.0,South,3.5,-,N/A,,Scattered Clouds,190,2013-09-24 12:03:00
8:51 AM,48.9,42.1,77,30.16,10.0,South,3.5,-,N/A,,Clear,190,2013-09-24 12:51:00
9:30 AM,51.8,44.6,76,30.15,10.0,South,4.6,-,N/A,,Mostly Cloudy,180,2013-09-24 13:30:00
9:51 AM,54.0,45.0,72,30.16,10.0,Calm,Calm,-,N/A,,Mostly Cloudy,0,2013-09-24 13:51:00
10:01 AM,57.2,46.4,67,30.15,10.0,Calm,Calm,-,N/A,,Scattered Clouds,0,2013-09-24 14:01:00
10:51 AM,59.0,48.0,67,30.15,10.0,NNW,4.6,-,N/A,,Clear,340,2013-09-24 14:51:00
11:51 AM,61.0,50.0,67,30.14,10.0,NNW,4.6,-,N/A,,Clear,330,2013-09-24 15:51:00
12:51 PM,62.1,48.9,62,30.12,10.0,NNW,5.8,-,N/A,,Clear,340,2013-09-24 16:51:00
1:51 PM,62.1,48.9,62,30.09,10.0,NNW,6.9,-,N/A,,Scattered Clouds,330,2013-09-24 17:51:00
2:51 PM,63.0,48.9,60,30.07,10.0,Variable,6.9,-,N/A,,Clear,0,2013-09-24 18:51:00
3:51 PM,63.0,48.9,60,30.06,10.0,NNE,6.9,-,N/A,,Clear,20,2013-09-24 19:51:00
4:51 PM,62.1,48.9,62,30.05,10.0,NE,10.4,-,N/A,,Clear,40,2013-09-24 20:51:00
5:51 PM,61.0,48.9,64,30.04,10.0,NE,8.1,-,N/A,,Clear,40,2013-09-24 21:51:00
6:51 PM,59.0,48.0,67,30.04,10.0,NE,4.6,-,N/A,,Clear,50,2013-09-24 22:51:00
7:51 PM,55.0,46.9,74,30.03,10.0,Calm,Calm,-,N/A,,Clear,0,2013-09-24 23:51:00
8:51 PM,52.0,46.9,83,30.04,10.0,Calm,Calm,-,N/A,,Clear,0,2013-09-25 00:51:00
9:51 PM,51.1,46.0,83,30.02,10.0,East,3.5,-,N/A,,Clear,80,2013-09-25 01:51:00
10:51 PM,53.1,46.0,77,30.01,10.0,ENE,3.5,-,N/A,,Clear,70,2013-09-25 02:51:00
11:51 PM,54.0,46.0,75,30.01,10.0,Calm,Calm,-,N/A,,Clear,0,2013-09-25 03:51:00